Terminal Aerodrome Forecast
Issued by NWS Raleigh/Durham, NC

Home | Current Version | Previous Version | Text Only | Print | Product List | Glossary On
Versions: 1 2 3 4 5 6 7 8 9 10 11 12 13 14 15 16 17 18 19 20 21
000
FTUS42 KRAH 211126
TAFGSO
TAF
KGSO 211126Z 2112/2212 01005KT P6SM FEW250=

USA.gov is the U.S. government's official web portal to all federal, state and local government web resources and services.